CDT,Max TemperatureF,Mean TemperatureF,Min TemperatureF,Max Dew PointF,MeanDew PointF,Min DewpointF,Max Humidity, Mean Humidity, Min Humidity, Max Sea Level PressureIn, Mean Sea Level PressureIn, Min Sea Level PressureIn, Max VisibilityMiles, Mean VisibilityMiles, Min VisibilityMiles, Max Wind SpeedMPH, Mean Wind SpeedMPH, Max Gust SpeedMPH,PrecipitationIn, CloudCover, Events, WindDirDegrees
2013-3-1,35,30,24,28,26,23,100,81,65,30.18,30.14,30.11,9,7,5,10,3,,0.00,6,Rain,311
2013-3-2,35,32,28,27,23,16,86,72,55,30.26,30.21,30.15,10,8,5,13,7,16,0.00,7,Rain-Snow,336
2013-3-3,46,32,19,27,20,16,93,61,29,30.26,30.18,30.09,10,9,3,8,2,,0.00,0,,298
2013-3-4,66,49,32,46,30,21,75,48,24,30.10,29.94,29.79,10,9,7,17,5,33,0.00,1,,175
2013-3-5,59,48,37,55,38,21,100,70,45,30.19,29.99,29.82,10,8,0,22,9,32,0.26,5,Rain-Thunderstorm,294
2013-3-6,46,38,28,27,23,19,93,59,43,30.37,30.30,30.20,10,9,7,15,8,21,0.00,1,,345
2013-3-7,53,40,28,32,27,25,93,68,35,30.40,30.33,30.29,10,9,7,8,2,,0.00,0,,54
2013-3-8,64,48,32,32,27,18,93,53,16,30.40,30.29,30.20,10,8,2,7,2,,0.00,0,,89
2013-3-9,69,58,48,37,30,25,54,35,23,30.21,30.09,29.97,10,8,7,10,4,23,0.00,0,,163
2013-3-10,62,56,50,57,48,39,100,79,48,30.02,29.91,29.80,10,5,1,14,5,22,1.22,5,Rain-Thunderstorm,186
2013-3-11,50,41,30,50,34,28,100,77,53,30.05,29.95,29.87,10,8,2,14,6,20,0.30,5,Rain,290
2013-3-12,57,42,26,36,28,23,100,66,29,30.23,30.15,30.04,10,8,5,12,2,,0.00,1,,328
2013-3-13,50,40,30,36,24,18,87,53,30,30.44,30.36,30.23,10,9,8,16,5,24,0.00,0,,335
2013-3-14,62,43,24,32,26,19,93,54,25,30.46,30.34,30.22,10,9,5,13,2,21,0.00,0,,214
2013-3-15,73,58,44,46,41,32,66,50,36,30.22,30.08,29.96,10,9,5,20,6,29,0.00,0,,227
2013-3-16,73,64,55,50,49,45,77,60,41,29.99,29.94,29.88,10,9,2,18,11,26,0.00,0,,235
2013-3-17,73,60,48,55,49,45,94,62,36,29.95,29.86,29.76,10,9,6,17,5,25,0.00,3,,202
2013-3-18,66,54,39,61,53,39,100,82,63,30.06,29.83,29.72,10,7,0,17,9,40,0.65,4,Rain-Thunderstorm,251
2013-3-19,59,46,32,43,31,21,100,62,25,30.20,30.13,30.06,10,8,4,12,3,20,0.00,0,,38
2013-3-20,55,44,33,32,25,10,87,46,28,30.25,30.17,30.09,10,10,8,17,5,24,0.00,1,,345
2013-3-21,46,36,26,36,18,9,93,48,23,30.13,30.05,29.96,10,9,2,8,3,,0.20,1,Rain,48
2013-3-22,48,42,35,45,39,34,100,89,76,29.99,29.94,29.89,10,6,2,9,5,,0.11,7,Rain-Thunderstorm,120
2013-3-23,53,48,44,50,46,41,100,94,82,29.92,29.83,29.67,9,4,1,15,5,16,1.28,8,Rain-Thunderstorm,84
2013-3-24,50,44,35,50,39,23,100,81,56,29.98,29.74,29.60,10,6,0,23,7,34,0.14,8,Fog-Rain,286
2013-3-25,39,36,32,25,21,19,69,55,45,30.27,30.12,29.98,10,9,7,17,11,24,0.00,6,,318
2013-3-26,44,35,26,27,23,19,93,62,39,30.39,30.34,30.26,10,9,7,15,7,20,0.00,4,,328
2013-3-27,55,39,23,32,25,21,100,63,29,30.45,30.37,30.31,10,9,7,9,1,,0.00,0,,274
2013-3-28,66,48,30,37,31,27,93,58,24,30.38,30.32,30.25,10,9,7,8,1,,0.00,1,,232
2013-3-29,62,53,44,50,41,30,100,64,37,30.30,30.24,30.19,10,8,2,14,4,22,0.08,3,Rain,217
2013-3-30,57,52,48,55,51,46,100,96,82,30.20,30.09,29.97,9,5,1,8,1,,0.91,6,Rain-Thunderstorm,154
2013-3-31,62,55,48,57,55,46,100,94,77,30.00,29.94,29.89,10,6,0,12,4,17,0.29,5,Fog-Rain-Thunderstorm,254